Regional Weather Roundup
Issued by NWS Charleston, SC

Current Version | Previous Version | Text Only | Print | Product List | Glossary Off
Versions: 1 2 3 4 5 6 7 8 9 10 11 12 13 14 15 16 17 18 19 20 21 22 23 24 25 26 27 28 29 30 31 32 33 34 35 36 37 38 39 40 41 42 43 44 45 46 47 48 49 50

000
ASUS42 KCHS 210310
RWRCHS
REGIONAL WEATHER ROUNDUP
NATIONAL WEATHER SERVICE CHARLESTON SC
1000 PM EST THU NOV 20 2014

NOTE: "FAIR" INDICATES FEW OR NO CLOUDS BELOW 12,000 FEET WITH NO
SIGNIFICANT WEATHER AND/OR OBSTRUCTIONS TO VISIBILITY.

NOT ALL STATIONS ARE QUALITY CONTROLLED BY THE NATIONAL
WEATHER SERVICE. USE DATA WITH CAUTION...ESPECIALLY
DEWPOINT OBSERVATIONS.

SCZ027-030-031-034>040-042>050-210400-
...SOUTH CAROLINA...

CITY           SKY/WX    TMP DP  RH WIND       PRES   REMARKS
N CHARLESTON   CLEAR     50  40  68 SW8       30.24R
WATERFRONT PRK   N/A     52 N/A N/A SW7         N/A
FORT JOHNSON   NOT AVBL
JOHNS ISLAND   CLEAR     54  45  71 SW7       30.24R
PINOPOLIS        N/A     52  37  58 SW7       30.14R
MONCKS CORNER  FAIR      48  41  76 SW5       30.22R
SUMMERVILLE    FAIR      45  37  76 S3        30.24R
BEAUFORT MCAS  CLEAR     47  39  74 SW7       30.25R
BEAUFORT ARPT  FAIR      52  41  66 SW7       30.24R
HILTON HEAD IS CLEAR     48  39  71 SW5       30.26R
GEORGETOWN     NOT AVBL
WALTERBORO     PTCLDY    48  32  53 SW5       30.24R
ORANGEBURG     MOCLDY    48  36  63 SW6       30.22R
BARNWELL       FAIR      45  37  76 W3        30.23S
AIKEN          FAIR      45  34  65 CALM      30.25R
MANNING        NOT AVBL
KINGSTREE      NOT AVBL
COLUMBIA       PTCLDY    48  34  58 SW6       30.20R
SUMTER         PTCLDY    41  35  80 S3        30.18R
FLORENCE       PTCLDY    47  33  58 SW6       30.18R
MYRTLE BEACH   CLEAR     52  36  54 SW8       30.19S
N MYRTLE BEACH MOCLDY    54  36  50 SW10      30.18R

$$

GAZ063-065-086>088-099>101-113>116-118-119-134-136>141-150-210400-
...GEORGIA...

CITY           SKY/WX    TMP DP  RH WIND       PRES   REMARKS
SAVANNAH ARPT  CLEAR     50  32  50 CALM      30.26R
HUNTER AAF     CLEAR     44  36  73 CALM      30.24R
FORT STEWART   CLEAR     42  35  76 CALM      30.25R
STATESBORO     NOT AVBL
SYLVANIA       PTCLDY    49  40  73 CALM      30.25R
CLAXTON        FAIR      41  37  87 CALM      30.26R
THOMSON        CLEAR     42  39  90 CALM      30.27R
AUGUSTA-BUSH   PTCLDY    49  37  63 W7        30.23R
AUGUSTA-DANIEL PTCLDY    54  37  52 W5        30.23R
SWAINSBORO     FAIR      50  43  76 CALM      30.26R
VIDALIA        CLEAR     45  39  81 CALM      30.26R
ALMA           CLEAR     39  36  89 CALM      30.26S
WAYCROSS       CLEAR     43  39  85 CALM      30.27S
JESUP          FAIR      41  37  87 CALM      30.26S
BRUNSWICK      PTCLDY    41  37  87 CALM      30.27S
SAINT SIMONS   PTCLDY    44  41  89 CALM      30.26F

$$

SCZ027-028-034-036>038-045-046-048>050-GAZ119-141-210400-
...LAKE AND SUPPLEMENTAL COASTAL OBSERVATIONS...

STATION/POSITION TIME  TEMP    WIND        PRES    WAVE   SWELL
                       AIR SEA DIR/SP/G            HT/PER HT/PER/DIR
                 (UTC) (F)     (DEG/KT/KT) (MB)    (FT/S) (FT/S/D)
UPR LAKE MARION  NOT AVBL
WINYAH BAY       0200   52     230/  7     1022.0S
LAKE MURRAY      0200   55     250/ 11/ 15 1021.3R
ACE BASIN NERRS  0200   49        CALM     1023.0S
FORT PULASKI     0300   52     230/  5/  6 1024.5S
SAPELO ISLAND    NOT AVBL

$$

ANZ835-935-AMZ111-154-330-350-352-354-374-450-454-472-210400-
...C-MAN AND BUOY OBSERVATIONS...

STATION/POSITION TIME  TEMP    WIND        PRES    WAVE   SWELL
                       AIR SEA DIR/SP/G            HT/PER HT/PER/DIR
                 (UTC) (F)     (DEG/KT/KT) (MB)    (FT/S) (FT/S/D)
FOLLY BEACH CMAN 0200   56     240/  8/ 10 1023.8R
BUOY 41004       0300   63 72  260/ 19/ 27 1022.9R   4/ 5   2/ 8
BUOY 41008       0300   61 65  260/ 12/ 14 1024.6S   1/ 8   2/110/ 8
5E ST. MARYS GA  0300      62                N/A     1/ 8
FRYING PAN BUOY  0300   62 64  250/ 21/ 25 1022.7R   6/ 6
BUOY 41025       0300   61     260/ 21/ 27 1019.7R   7/ 7
CAPE LOOKOUT NC  0200   58     250/ 18/ 21 1020.3R
BUOY 41002       0231   67 73  260/ 16/ 19 1023.2S   4/ 6   2/ 60/ 8
BUOY 41010       0300   70 78   50/ 12/ 16 1023.7R   4/ 7   3/ 90/ 7
BUOY 41012       NOT AVBL
ST AUGUSTINE FL  0300   57     340/  4/  4 1025.5F
CAPERS NEARSHORE 0200   59     250/ 16/ 19   N/A
FRIPP NEARSHORE  NOT AVBL


$$


USA.gov is the U.S. government's official web portal to all federal, state and local government web resources and services.